Flag for U.S.A. Weather past 2 weeks in Breckenridge, Colorado, U.S.A.

Now
7 °F

Light snow. Ice fog.


Feels Like: -7 °F
Forecast: 2 / 23 °F
Wind: 9 mph from North

Location: Lake County Airport

Current Time: Mar 4, 2015 at 6:15:31 AM

Latest Report: Mar 4, 2015 at 4:53 AM


Visibility: 2 mi

Pressure: 29.78 "Hg

Humidity: 83%

Dew point: 3 °F

Location of BreckenridgeLocation

Historic Weather in Breckenridge — Graph

°F

Breckenridge temperature yesterday

Maximum temperature yesterday: 24 °F (at 11:53 AM)
Minimum temperature yesterday: 12 °F (at 11:53 PM)
Average temperature yesterday: 18 °F

Past Weeks' High & Low Weather Summary

 TemperatureHumidityPressure
High38 °F (Feb 19, 12:53 PM)100% (Mar 1, 9:53 PM)30.27 "Hg (Mar 1, 9:53 PM)
Low-5 °F (Feb 27, 12:53 AM)32% (Feb 18, 8:53 AM)29.49 "Hg (Mar 2, 5:53 PM)
Average16 °F73%29.92 "Hg
* Reported Feb 17 4:01 AM — Mar 4 4:53 AM, Breckenridge, Weather by CustomWeather, © 2015

Note: Actual official high and low records may vary slightly from our data, if they occured in-between our weather recording intervals... More about our weather records

Advertising

Breckenridge weather history for previous 24 hours

 ConditionsComfort  
Time TempWeatherWind HumidityBarometerVisibility
4:53 AM
Wed, Mar 4
7 °FLight snow. Ice fog.9 mph83%29.78 "Hg2 mi
3:53 AM8 °FLight snow. Ice fog.9 mph83%29.75 "Hg1 mi
2:53 AM10 °FLight snow. Ice fog.5 mph88%29.73 "Hg1 mi
2:02 AM11 °FLight snow. Ice fog.6 mph84%29.74 "Hg2 mi
1:53 AM11 °FLight snow. Ice fog.6 mph84%29.73 "Hg1 mi
12:53 AM11 °FLight snow. Ice fog.8 mph88%29.69 "Hg2 mi
11:53 PM
Tue, Mar 3
12 °FLight snow. Ice fog.9 mph88%29.67 "Hg1 mi
10:53 PM16 °FLight snow. Ice fog.No wind84%29.65 "Hg2 mi
9:53 PM14 °FMostly cloudy.6 mph84%29.65 "Hg10 mi
8:53 PM15 °FLight snow. Ice fog.No wind91%29.65 "Hg2 mi
7:53 PM15 °FMostly cloudy.3 mph83%29.66 "Hg10 mi
6:53 PM15 °FPassing clouds.7 mph83%29.67 "Hg10 mi
5:53 PM17 °FBroken clouds.3 mph80%29.63 "Hg10 mi
4:53 PM19 °FMostly cloudy.7 mph74%29.60 "Hg10 mi
3:53 PM21 °FMostly cloudy.8 mph71%29.57 "Hg10 mi
2:53 PM22 °FMostly cloudy.12 mph62%29.57 "Hg10 mi
1:53 PM21 °FMostly cloudy.18 mph74%29.57 "Hg10 mi
12:53 PM24 °FOvercast.10 mph48%29.57 "Hg10 mi
11:53 AM24 °FPartly sunny.14 mph33%29.55 "Hg10 mi
10:53 AM22 °FPartly sunny.12 mph50%29.60 "Hg10 mi
9:53 AM21 °FBroken clouds.5 mph47%29.62 "Hg10 mi
8:53 AM20 °FPassing clouds.6 mph55%29.62 "Hg10 mi
7:53 AM18 °FPartly sunny.9 mph71%29.62 "Hg10 mi
6:53 AM15 °FOvercast.8 mph77%29.62 "Hg10 mi
Weather by CustomWeather, © 2015

See weather overviewHow to use our weather pages